Regional Weather Roundup
Issued by NWS Green Bay, WI

Home | Current Version | Previous Version | Text Only | Print | Product List | Glossary On
Versions: 1 2 3 4 5 6 7 8 9 10 11 12 13 14 15 16 17 18 19 20 21 22 23 24 25 26 27 28 29 30 31 32 33 34 35 36 37 38 39 40 41 42 43 44 45 46 47 48 49 50
000
ASUS43 KGRB 230710
RWRGRB

NORTH-CENTRAL AND NORTHEAST WISCONSIN REGIONAL WEATHER ROUNDUP
NATIONAL WEATHER SERVICE GREEN BAY WI
100 AM CST SUN NOV 23 2014

WIZ005-009-010>012-018-019-230800-
NORTH CENTRAL WISCONSIN

CITY           SKY/WX    TMP DP  RH WIND       PRES   REMARKS
IRONWOOD       CLOUDY    37  36  93 S10G16    29.55F
MANITOWISH WTR CLOUDY    35  35 100 S6        29.60F FOG
ARBOR VITAE    FOG       37  36  96 S5        29.61F VSB 1/2
EAGLE RIVER    FOG       35  35 100 S5        29.62F VSB 3/4
LAND O LAKES   FOG       35  35 100 S3        29.62F VSB 1
RHINELANDER    FOG       36  36 100 S6        29.63F VSB 1/4
PHILLIPS       FOG       37  37 100 SE7       29.58F VSB 1/2
ANTIGO         FOG       35  35 100 SE9       29.64F VSB 1/4
TOMAHAWK       FOG       36  35  96 CALM      29.62F VSB 1/2
MERRILL        FOG       36  36 100 S3        29.63F VSB 1/4
$$

WIZ013-073-230800-
NORTHEAST WISCONSIN

CITY           SKY/WX    TMP DP  RH WIND       PRES   REMARKS
IRON MOUNTAIN  FOG       34  33  96 SE8       29.66F VSB 1/2
MARINETTE      CLOUDY    37  36  93 SE3       29.71F VSB 1/2
OCONTO         CLOUDY    37  37 100 CALM      29.71F VSB 1/4
$$

WIZ017-030-035>037-045-230800-
CENTRAL WISCONSIN

CITY           SKY/WX    TMP DP  RH WIND       PRES   REMARKS
MEDFORD        FOG       37  37  99 SE8       29.60F VSB 1/4
WAUSAU         FOG       38  38 100 CALM      29.63F VSB 1/4
MOSINEE        FOG       37  37 100 SE9       29.64F VSB<1/4
MARSHFIELD     FOG       41  40  96 S8        29.61F VSB 1/4
WISC RAPIDS    CLOUDY    46  45  96 S7        29.66F
STEVENS POINT  DRZL/FOG  41  41 100 SE5       29.65F VSB 1/4
WAUPACA        FOG       40  39  96 CALM      29.68F VSB 1/4
SHAWANO        FOG       37  35  94 CALM      29.70F VSB<1/4
CLINTONVILLE   FOG       37  36  93 CALM      29.69F VSB<1/4
$$

WIZ038-039-048-051-230800-
FOX VALLEY

CITY           SKY/WX    TMP DP  RH WIND       PRES   REMARKS
NWS GREEN BAY  FOG       42  42 100 S3        29.71F VSB 3/4
APPLETON       FOG       43  43 100 S7        29.70F VSB 1/4
OSHKOSH        CLOUDY    47  44  90 S12       29.71F FOG
FOND DU LAC    MOCLDY    49  45  86 S14       29.71F
$$

WIZ022-050-052-230800-
EAST CENTRAL WISCONSIN

CITY           SKY/WX    TMP DP  RH WIND       PRES   REMARKS
STURGEON BAY   CLOUDY    43  41  93 S9        29.73F VSB 1
MANITOWOC      CLOUDY    44  43  96 S9        29.73F FOG
SHEBOYGAN      CLOUDY    43  41  93 S9        29.73F FOG
$$

LMZ563-521-522-541>543-230800-
LAKESHORE

STATION/POSITION TIME  TEMP    WIND        PRES    VSBY  WAVE
                       AIR SEA DIR/SP/G                  HT/PER
                 (UTC) (F)     (DEG/KT/KT) (MB)    (MI)  (FT/S)
SHEBOYGAN LKSHOR 0700   44 36  170/ 16/ 16 1007.4F
KEWAUNEE LKSHORE 0700   40     180/  8/  8 1006.2F
NORTHPORT PIER   0700   38     140/  6/  8 1007.1F
N MID LAKE BUOY  0700   42 42  170/  6/  8 1008.1F         3/ 7
SISTER BAY LKSHO 0700             CALM       N/A
CHAMBERS ISLAND  0700   40     160/  1/  7 1007.5S
MENOMINEE LKSHOR 0700   37     140/  6/  7 1007.0F
$$


USA.gov is the U.S. government's official web portal to all federal, state and local government web resources and services.